FW9994 Weather Reports


time (UTC)temp
C
wind
direction
speed
KPH
gust
KPH
rain 1hr
cm
rain 24hr
cm
rain mn
cm
humidity
%
barometer
mb
20260502232126 14 0.0 0.0 0.20 0.33 0.33 89 1014.0
20260502231623 14 0.0 0.0 0.23 0.33 0.33 88 1013.9
20260502231118 14 0.0 0.0 0.33 0.33 0.33 88 1013.9
20260502230614 14 0.0 0.0 0.33 0.33 0.33 88 1013.9
20260502230109 14 0.0 0.0 0.33 0.33 0.33 87 1013.6
20260502225602 15 0.0 0.0 0.30 0.00 0.30 87 1013.6
20260502225101 15 0.0 0.0 0.28 0.00 0.28 87 1013.6
20260502224551 15 0.0 0.0 0.23 0.00 0.23 87 1014.2
20260502224041 15 0.0 0.0 0.23 0.00 0.23 87 1014.6
20260502223531 15 0.0 0.0 0.20 0.00 0.18 86 1015.2
20260502222526 15 0.0 0.0 0.13 0.00 0.13 85 1015.4
20260502222001 15 0.0 0.0 0.13 0.00 0.13 84 1015.1
20260502221457 15 0.0 0.0 0.05 0.00 0.05 83 1015.4
20260502220952 15 0.0 0.0 0.00 0.00 0.00 82 1015.6
20260502220440 16 0.0 0.0 0.00 0.00 0.00 81 1015.5
20260502215430 16 0.0 0.0 0.00 0.00 0.00 79 1015.4
20260502214931 16 0.0 0.0 0.00 0.00 0.00 78 1015.4
20260502214427 16 0.0 0.0 0.00 0.00 0.00 77 1015.4
20260502212915 17 0.0 0.0 0.00 0.00 0.00 78 1015.4
20260502212414 17 0.0 0.0 0.00 0.00 0.00 78 1015.1
20260502211901 17 0.0 0.0 0.00 0.00 0.00 78 1014.5
20260502211401 17 0.0 0.0 0.00 0.00 0.00 77 1014.2
20260502210903 17 0.0 0.0 0.00 0.00 0.00 77 1014.1
20260502210340 17 0.0 0.0 0.00 0.00 0.00 77 1013.9
20260502205835 17 0.0 0.0 0.00 0.00 0.00 77 1013.8
20260502205334 17 0.0 0.0 0.00 0.00 0.00 77 1013.9
20260502204831 17 0.0 0.0 0.00 0.00 0.00 76 1013.9
20260502204330 17 0.0 0.0 0.00 0.00 0.00 76 1014.1
20260502203829 17 0.0 0.0 0.00 0.00 0.00 76 1014.1
20260502203329 17 0.0 0.0 0.00 0.00 0.00 75 1014.3
20260502202829 17 0.0 0.0 0.00 0.00 0.00 75 1014.5
20260502202334 18 0.0 0.0 0.00 0.00 0.00 74 1014.6
20260502201833 18 0.0 0.0 0.00 0.00 0.00 74 1014.7
20260502201325 18 0.0 0.0 0.00 0.00 0.00 74 1014.8
20260502200313 18 0.0 0.0 0.00 0.00 0.00 72 1014.8
20260502195729 18 0.0 0.0 0.00 0.00 0.00 72 1014.9
20260502194731 19 0.0 0.0 0.00 0.00 0.00 72 1015.0
20260502194211 19 0.0 0.0 0.00 0.00 0.00 72 1015.1
20260502193709 19 0.0 0.0 0.00 0.00 0.00 72 1015.2
20260502192133 20 0.0 0.0 0.00 0.00 0.00 71 1014.8
20260502191638 20 0.0 0.0 0.00 0.00 0.00 70 1014.8
20260502191135 20 0.0 0.0 0.00 0.00 0.00 70 1014.8
20260502190629 20 0.0 0.0 0.00 0.00 0.00 69 1014.7
20260502190126 20 0.0 0.0 0.00 0.00 0.00 69 1014.7
20260502185614 20 0.0 0.0 0.00 0.00 0.00 69 1014.7
20260502185113 20 0.0 0.0 0.00 0.00 0.00 68 1014.6
20260502184612 21 0.0 0.0 0.00 0.00 0.00 67 1014.6
20260502184103 21 47 0.0 4.8 0.00 0.00 0.00 67 1014.7
20260502183046 21 47 0.0 4.8 0.00 0.00 0.00 66 1014.8
20260502182040 21 12 1.6 6.4 0.00 0.00 0.00 65 1014.8
20260502181540 21 12 1.6 6.4 0.00 0.00 0.00 64 1014.8
20260502181040 21 0 1.6 11.3 0.00 0.00 0.00 64 1014.7
20260502180540 22 75 3.2 11.3 0.00 0.00 0.00 64 1014.7
20260502164030 24 357 1.6 6.4 0.00 0.00 0.00 57 1015.4
20260502163531 24 38 1.6 4.8 0.00 0.00 0.00 55 1015.5
20260502163029 23 199 1.6 4.8 0.00 0.00 0.00 54 1015.7
20260502162529 23 261 1.6 4.8 0.00 0.00 0.00 55 1015.7
20260502162030 23 216 1.6 4.8 0.00 0.00 0.00 54 1015.7
20260502161029 24 312 1.6 6.4 0.00 0.00 0.00 54 1015.9
20260502160529 24 220 3.2 6.4 0.00 0.00 0.00 53 1015.8
20260502152029 24 220 3.2 12.9 0.00 0.00 0.00 54 1016.4
20260502151523 24 268 4.8 12.9 0.00 0.00 0.00 54 1016.5
20260502150524 25 208 4.8 12.9 0.00 0.00 0.00 52 1016.6
20260502130511 24 249 6.4 17.7 0.00 0.00 0.00 55 1017.7
20260502123503 23 205 4.8 16.1 0.00 0.00 0.00 57 1018.1
20260502122503 23 266 6.4 19.3 0.00 0.00 0.00 57 1018.1
20260502121504 23 260 8.0 19.3 0.00 0.00 0.00 57 1018.2
20260502121001 24 201 4.8 14.5 0.00 0.00 0.00 56 1018.2
20260502120453 23 285 3.2 11.3 0.00 0.00 0.00 57 1018.1
20260502115452 22 185 6.4 19.3 0.00 0.00 0.00 58 1018.1
20260502114952 23 237 4.8 19.3 0.00 0.00 0.00 58 1018.1
20260502114451 23 256 4.8 11.3 0.00 0.00 0.00 59 1018.2
20260502113452 23 303 4.8 17.7 0.00 0.00 0.00 57 1018.2
20260502112950 23 260 3.2 17.7 0.00 0.00 0.00 56 1018.3
20260502112450 23 241 4.8 12.9 0.00 0.00 0.00 56 1018.3
20260502111951 23 312 6.4 12.9 0.00 0.00 0.00 56 1018.4
20260502111448 23 285 4.8 16.1 0.00 0.00 0.00 57 1018.5
20260502110948 23 226 4.8 17.7 0.00 0.00 0.00 58 1018.5
20260502110447 23 291 4.8 17.7 0.00 0.00 0.00 57 1018.7
20260502105947 23 256 4.8 12.9 0.00 0.00 0.00 56 1018.6
20260502105448 23 253 4.8 14.5 0.00 0.00 0.00 56 1018.6
20260502104945 23 165 4.8 14.5 0.00 0.00 0.00 56 1018.7
20260502103944 23 226 4.8 16.1 0.00 0.00 0.00 57 1018.7
20260502103445 23 218 4.8 14.5 0.00 0.00 0.00 57 1018.8
20260502102945 22 243 6.4 17.7 0.00 0.00 0.00 58 1018.7
20260502102445 22 264 6.4 17.7 0.00 0.00 0.00 58 1018.8
20260502101945 22 268 6.4 12.9 0.00 0.00 0.00 59 1018.9
20260502101445 22 285 6.4 14.5 0.00 0.00 0.00 60 1018.8
20260502100945 22 241 6.4 16.1 0.00 0.00 0.00 59 1019.0
20260502100445 22 219 6.4 19.3 0.00 0.00 0.00 60 1019.1
20260502090930 20 0.0 0.0 0.00 0.00 0.00 59 1019.4
20260502090431 20 0.0 0.0 0.00 0.00 0.00 60 1019.4
20260502070827 13 0.0 0.0 0.00 0.00 0.00 75 1019.4
20260502070304 13 0.0 0.0 0.00 0.00 0.00 74 1019.5
20260502065801 13 0.0 0.0 0.00 0.00 0.00 72 1019.5
20260502065305 13 0.0 0.0 0.00 0.00 0.00 69 1019.4
20260502064802 14 0.0 0.0 0.00 0.00 0.00 68 1019.5
20260502063752 14 0.0 0.0 0.00 0.00 0.00 62 1019.6
20260502063241 14 0.0 0.0 0.00 0.00 0.00 61 1019.5
20260502062732 14 0.0 0.0 0.00 0.00 0.00 61 1019.3
20260502062229 14 0.0 0.0 0.00 0.00 0.00 61 1019.2
20260502061729 14 0.0 0.0 0.00 0.00 0.00 61 1019.3
20260502061229 14 0.0 0.0 0.00 0.00 0.00 60 1019.4
20260502060729 14 0.0 0.0 0.00 0.00 0.00 60 1019.3
20260502060228 14 0.0 0.0 0.00 0.00 0.00 60 1019.3
20260502055729 13 0.0 0.0 0.00 0.00 0.00 61 1019.4
20260502055229 13 0.0 0.0 0.00 0.00 0.00 61 1019.4
20260502054729 13 0.0 0.0 0.00 0.00 0.00 62 1019.4
20260502054229 13 0.0 0.0 0.00 0.00 0.00 63 1019.5
20260502053731 12 0.0 0.0 0.00 0.00 0.00 64 1019.4
20260502053228 12 0.0 0.0 0.00 0.00 0.00 67 1019.4
20260502052727 11 0.0 0.0 0.00 0.00 0.00 68 1019.5
20260502052215 11 0.0 0.0 0.00 0.00 0.00 70 1019.4
20260502051716 10 0.0 0.0 0.00 0.00 0.00 71 1019.3
20260502050649 10 0.0 0.0 0.00 0.00 0.00 73 1019.3
20260502045629 9 0.0 0.0 0.00 0.00 0.00 73 1019.4
20260502045130 9 0.0 0.0 0.00 0.00 0.00 73 1019.2
20260502044629 9 0.0 0.0 0.00 0.00 0.00 73 1019.2
20260502043622 9 0.0 0.0 0.00 0.00 0.00 73 1019.3
20260502043111 8 0.0 0.0 0.00 0.00 0.00 73 1019.3
20260502042609 8 0.0 0.0 0.00 0.00 0.00 73 1019.3
20260502042102 8 0.0 0.0 0.00 0.00 0.00 73 1019.3
20260502041602 8 0.0 0.0 0.00 0.00 0.00 73 1019.4
20260502040546 8 0.0 0.0 0.00 0.00 0.00 73 1019.4
20260502035530 8 0.0 0.0 0.00 0.00 0.00 73 1019.8
20260502034528 8 0.0 0.0 0.00 0.00 0.00 72 1019.7
20260502033030 9 0.0 0.0 0.00 0.00 0.00 72 1019.8
20260502032528 9 0.0 0.0 0.00 0.00 0.00 72 1019.7
20260502032029 9 0.0 0.0 0.00 0.00 0.00 71 1019.7
20260502031524 9 0.0 0.0 0.00 0.00 0.00 71 1019.7
20260502030501 9 0.0 0.0 0.00 0.00 0.00 71 1019.8
20260502030001 9 0.0 0.0 0.00 0.00 0.00 70 1019.7
20260502025501 10 0.0 0.0 0.00 0.00 0.00 70 1019.9
20260502025004 10 0.0 0.0 0.00 0.00 0.00 70 1019.9
20260502024502 10 0.0 0.0 0.00 0.00 0.00 70 1019.9
20260502024003 10 0.0 0.0 0.00 0.00 0.00 69 1020.0
20260502022930 10 0.0 0.0 0.00 0.00 0.00 69 1020.2
20260502021931 10 0.0 0.0 0.00 0.00 0.00 68 1020.3
20260502021429 10 0.0 0.0 0.00 0.00 0.00 67 1020.2
20260502020931 10 0.0 0.0 0.00 0.00 0.00 67 1020.2
20260502020431 10 0.0 0.0 0.00 0.00 0.00 67 1020.3
20260502015926 11 0.0 0.0 0.00 0.00 0.00 66 1020.3
20260502014413 11 0.0 0.0 0.00 0.00 0.00 65 1020.3
20260502013401 11 0.0 0.0 0.00 0.00 0.00 64 1020.3
20260502012902 11 0.0 0.0 0.00 0.00 0.00 64 1020.4
20260502012401 11 0.0 0.0 0.00 0.00 0.00 63 1020.4
20260502011336 12 0.0 0.0 0.00 0.00 0.00 62 1020.3
20260502010830 12 0.0 0.0 0.00 0.00 0.00 62 1020.3
20260502010321 12 0.0 0.0 0.00 0.00 0.00 62 1020.4
20260502005311 12 0.0 0.0 0.00 0.00 0.00 61 1020.6
20260502004802 12 0.0 0.0 0.00 0.00 0.00 61 1020.6
20260502004302 12 0.0 0.0 0.00 0.00 0.00 61 1020.6
20260502003806 12 0.0 0.0 0.00 0.00 0.00 61 1020.7
20260502003303 12 0.0 0.0 0.00 0.00 0.00 61 1020.7
20260502002756 12 0.0 0.0 0.00 0.00 0.00 61 1020.9
20260502002249 12 0.0 0.0 0.00 0.00 0.00 61 1021.0
20260502001734 12 0.0 0.0 0.00 0.00 0.00 60 1021.1
20260502001230 12 0.0 0.0 0.00 0.00 0.00 60 1021.1
20260502000233 12 0.0 0.0 0.00 0.00 0.00 59 1021.1
20260501235226 13 0.0 0.0 0.00 0.00 0.00 59 1021.2
20260501234728 13 0.0 0.0 0.00 0.00 0.00 59 1021.2
20260501234224 13 0.0 0.0 0.00 0.00 0.00 59 1021.2
20260501233724 13 0.0 0.0 0.00 0.00 0.00 59 1021.3
20260501233230 13 0.0 0.0 0.00 0.00 0.00 59 1021.2
20260501232711 13 0.0 0.0 0.00 0.00 0.00 59 1021.3
20260501232208 13 0.0 0.0 0.00 0.00 0.00 59 1021.4